Terug naar catalogus

STARLINK-3398

ActiefCommunicatieVLEO
NORAD 51120·PAYLOAD·🇺🇸 United States

Gelanceerd Jan 19, 2022 vanaf Cape Canaveral Space Force Station

Loading…

Volgende Passages (komende 24 uur)

TLE

VersSource: CelesTrak SupGP

Epoch: Sep 14, 2026, 21:41 UTC

1 51120C 22005S   26257.90395833 -.00028961  00000+0 -85598-3 0  2572
2 51120  53.1578 151.8244 0001233  90.4503  44.0952 15.34393043    15

Volg STARLINK-3398 in realtime met AllMySat

Download on the App Store